WAT587 CYWG-CYQT

Flight info

Callsign WAT587
Flight time 0h 57m
Altitude 37000
Route RORMA DCT AXOMA DCT SIDPO DCT DEGVA DCT TIGAG TIGAG3
Aircraft A333/H-SDE3GHIJ2J3J5M1RVWXY/LB2D1

Departure

Time 2026-04-24 03:29
Airport Winnipeg / James Armstrong Richardson International Airport (CYWG)

Arrival

Time 2026-04-24 04:26
Airport Thunder Bay International Airport (CYQT)
Time Latitude Longitude Altitude Speed Heading
2026-04-24 02:47 49.89702 -97.22260 769 ft 0 kts
2026-04-24 03:13 49.89700 -97.22261 769 ft 0 kts
2026-04-24 03:13 49.89688 -97.22261 769 ft 2 kts 351°
2026-04-24 03:13 49.89674 -97.22254 769 ft 2 kts 329°
2026-04-24 03:14 49.89663 -97.22240 769 ft 2 kts 310°
2026-04-24 03:14 49.89654 -97.22221 769 ft 2 kts 290°
2026-04-24 03:14 49.89651 -97.22203 769 ft 0 kts 274°
2026-04-24 03:14 49.89651 -97.22196 769 ft 0 kts 273°
2026-04-24 03:15 49.89651 -97.22195 769 ft 0 kts 273°
2026-04-24 03:18 49.89651 -97.22201 769 ft 3 kts 273°
2026-04-24 03:19 49.89653 -97.22270 769 ft 7 kts 272°
2026-04-24 03:19 49.89656 -97.22356 769 ft 7 kts 273°
2026-04-24 03:19 49.89665 -97.22432 769 ft 6 kts 289°
2026-04-24 03:19 49.89691 -97.22499 769 ft 9 kts 308°
2026-04-24 03:20 49.89733 -97.22581 769 ft 9 kts 308°
2026-04-24 03:20 49.89767 -97.22647 769 ft 6 kts 308°
2026-04-24 03:20 49.89795 -97.22701 770 ft 8 kts 309°
2026-04-24 03:20 49.89837 -97.22778 770 ft 9 kts 310°
2026-04-24 03:21 49.89878 -97.22852 770 ft 9 kts 312°
2026-04-24 03:21 49.89941 -97.22945 771 ft 13 kts 319°
2026-04-24 03:21 49.90015 -97.23048 772 ft 13 kts 318°
2026-04-24 03:21 49.90080 -97.23139 773 ft 10 kts 317°
2026-04-24 03:22 49.90146 -97.23230 774 ft 15 kts 320°
2026-04-24 03:22 49.90234 -97.23347 775 ft 17 kts 318°
2026-04-24 03:22 49.90300 -97.23438 776 ft 10 kts 324°
2026-04-24 03:22 49.90369 -97.23447 776 ft 12 kts 15°
2026-04-24 03:23 49.90459 -97.23399 777 ft 13 kts 19°
2026-04-24 03:23 49.90552 -97.23350 777 ft 14 kts 18°
2026-04-24 03:23 49.90648 -97.23301 777 ft 14 kts 18°
2026-04-24 03:23 49.90744 -97.23270 777 ft 13 kts 349°
2026-04-24 03:24 49.90828 -97.23324 778 ft 12 kts 336°
2026-04-24 03:24 49.90902 -97.23376 779 ft 10 kts 335°
2026-04-24 03:24 49.90963 -97.23422 780 ft 8 kts 334°
2026-04-24 03:24 49.91021 -97.23466 780 ft 9 kts 334°
2026-04-24 03:25 49.91092 -97.23496 781 ft 13 kts 356°
2026-04-24 03:25 49.91208 -97.23477 781 ft 19 kts
2026-04-24 03:25 49.91345 -97.23445 782 ft 19 kts
2026-04-24 03:25 49.91479 -97.23413 782 ft 19 kts
2026-04-24 03:26 49.91607 -97.23382 782 ft 18 kts
2026-04-24 03:26 49.91732 -97.23353 782 ft 17 kts
2026-04-24 03:26 49.91854 -97.23326 781 ft 17 kts
2026-04-24 03:26 49.91974 -97.23302 781 ft 17 kts
2026-04-24 03:27 49.92094 -97.23274 780 ft 18 kts
2026-04-24 03:27 49.92221 -97.23243 780 ft 18 kts
2026-04-24 03:27 49.92349 -97.23214 779 ft 18 kts
2026-04-24 03:27 49.92445 -97.23226 779 ft 12 kts 314°
2026-04-24 03:28 49.92466 -97.23366 779 ft 14 kts 276°
2026-04-24 03:28 49.92443 -97.23498 780 ft 13 kts 213°
2026-04-24 03:28 49.92222 -97.23561 781 ft 62 kts 190°
2026-04-24 03:28 49.91584 -97.23709 783 ft 122 kts 189°
2026-04-24 03:29 49.90589 -97.23923 926 ft 156 kts 192°
2026-04-24 03:29 49.89559 -97.24139 1635 ft 150 kts 195°
2026-04-24 03:29 49.88544 -97.24390 2391 ft 147 kts 201°
2026-04-24 03:29 49.87491 -97.24693 2650 ft 175 kts 199°
2026-04-24 03:30 49.86171 -97.25042 2881 ft 205 kts 199°
2026-04-24 03:30 49.84706 -97.25528 3163 ft 228 kts 198°
2026-04-24 03:30 49.83053 -97.25873 3544 ft 250 kts 189°
2026-04-24 03:30 49.81292 -97.25410 4078 ft 268 kts 168°
2026-04-24 03:31 49.79498 -97.24606 3929 ft 264 kts 174°
2026-04-24 03:31 49.77741 -97.23731 3972 ft 280 kts 154°
2026-04-24 03:31 49.76418 -97.21537 5218 ft 281 kts 123°
2026-04-24 03:31 49.75867 -97.18697 6179 ft 285 kts 99°
2026-04-24 03:32 49.76165 -97.15636 6927 ft 297 kts 72°
2026-04-24 03:32 49.77195 -97.12840 7568 ft 306 kts 61°
2026-04-24 03:32 49.78328 -97.10073 8309 ft 308 kts 63°
2026-04-24 03:32 49.79481 -97.07295 9058 ft 310 kts 63°
2026-04-24 03:33 49.80654 -97.04467 9761 ft 313 kts 64°
2026-04-24 03:33 49.81825 -97.01645 10321 ft 321 kts 64°
2026-04-24 03:33 49.83098 -96.98566 10298 ft 351 kts 63°
2026-04-24 03:33 49.84452 -96.95290 10352 ft 377 kts 63°
2026-04-24 03:34 49.85902 -96.91801 10931 ft 384 kts 63°
2026-04-24 03:34 49.87340 -96.88330 11669 ft 386 kts 63°
2026-04-24 03:34 49.88795 -96.84809 12107 ft 397 kts 63°
2026-04-24 03:34 49.90284 -96.81213 12819 ft 398 kts 63°
2026-04-24 03:35 49.91796 -96.77531 13352 ft 405 kts 63°
2026-04-24 03:35 49.93197 -96.73799 13951 ft 400 kts 73°
2026-04-24 03:35 49.93872 -96.69712 14465 ft 390 kts 92°
2026-04-24 03:35 49.93878 -96.65564 15067 ft 387 kts 97°
2026-04-24 03:36 49.93853 -96.61375 15691 ft 389 kts 98°
2026-04-24 03:36 49.93819 -96.57181 16303 ft 392 kts 97°
2026-04-24 03:36 49.93778 -96.52932 16647 ft 400 kts 97°
2026-04-24 03:36 49.93741 -96.48603 17322 ft 400 kts 97°
2026-04-24 03:37 49.93702 -96.44305 17838 ft 403 kts 97°
2026-04-24 03:37 49.93652 -96.39932 18277 ft 408 kts 98°
2026-04-24 03:37 49.93618 -96.35561 18956 ft 406 kts 97°
2026-04-24 03:37 49.93577 -96.31160 19412 ft 411 kts 98°
2026-04-24 03:38 49.93537 -96.26687 19796 ft 417 kts 98°
2026-04-24 03:38 49.93498 -96.22233 20453 ft 415 kts 99°
2026-04-24 03:38 49.93452 -96.17760 20884 ft 418 kts 99°
2026-04-24 03:38 49.93407 -96.13232 21323 ft 420 kts 99°
2026-04-24 03:39 49.93357 -96.08699 21797 ft 422 kts 99°
2026-04-24 03:39 49.93308 -96.04136 22173 ft 424 kts 100°
2026-04-24 03:39 49.93256 -95.99510 22521 ft 428 kts 99°
2026-04-24 03:39 49.93200 -95.94885 22867 ft 432 kts 100°
2026-04-24 03:40 49.93145 -95.90265 23242 ft 434 kts 100°
2026-04-24 03:40 49.93086 -95.85579 23781 ft 432 kts 100°
2026-04-24 03:40 49.93029 -95.80963 24180 ft 434 kts 100°
2026-04-24 03:40 49.92964 -95.76279 24611 ft 435 kts 100°
2026-04-24 03:41 49.92898 -95.71510 24804 ft 441 kts 101°
2026-04-24 03:41 49.92834 -95.66862 25445 ft 436 kts 101°
2026-04-24 03:41 49.92766 -95.62134 25667 ft 437 kts 101°
2026-04-24 03:41 49.92690 -95.57382 25880 ft 447 kts 101°
2026-04-24 03:42 49.92619 -95.52575 26576 ft 446 kts 101°
2026-04-24 03:42 49.92544 -95.47759 27119 ft 448 kts 101°
2026-04-24 03:42 49.92468 -95.42891 27630 ft 451 kts 102°
2026-04-24 03:42 49.92386 -95.38023 28135 ft 452 kts 102°
2026-04-24 03:43 49.92300 -95.33168 28641 ft 454 kts 103°
2026-04-24 03:43 49.92213 -95.28267 29156 ft 453 kts 103°
2026-04-24 03:43 49.92125 -95.23434 29662 ft 453 kts 103°
2026-04-24 03:43 49.92030 -95.18454 30168 ft 453 kts 104°
2026-04-24 03:44 49.91937 -95.13579 30650 ft 452 kts 104°
2026-04-24 03:44 49.91843 -95.08698 31140 ft 451 kts 103°
2026-04-24 03:44 49.91747 -95.03839 31629 ft 449 kts 103°
2026-04-24 03:44 49.91651 -94.99045 32108 ft 447 kts 104°
2026-04-24 03:45 49.91540 -94.94266 32565 ft 442 kts 106°
2026-04-24 03:45 49.90926 -94.89733 33011 ft 414 kts 122°
2026-04-24 03:45 49.89843 -94.85661 33510 ft 408 kts 123°
2026-04-24 03:45 49.88736 -94.81518 33986 ft 405 kts 123°
2026-04-24 03:46 49.87664 -94.77526 34323 ft 404 kts 123°
2026-04-24 03:46 49.86566 -94.73437 34640 ft 404 kts 123°
2026-04-24 03:46 49.85491 -94.69450 34966 ft 403 kts 123°
2026-04-24 03:46 49.84401 -94.65410 35291 ft 402 kts 123°
2026-04-24 03:47 49.83324 -94.61423 35607 ft 401 kts 123°
2026-04-24 03:47 49.82241 -94.57428 35935 ft 399 kts 123°
2026-04-24 03:47 49.81157 -94.53426 36291 ft 398 kts 123°
2026-04-24 03:47 49.80083 -94.49474 36615 ft 399 kts 123°
2026-04-24 03:48 49.78984 -94.45456 36494 ft 408 kts 123°
2026-04-24 03:48 49.77889 -94.41436 36595 ft 412 kts 123°
2026-04-24 03:48 49.76759 -94.37314 36554 ft 418 kts 122°
2026-04-24 03:49 49.74453 -94.28886 36562 ft 427 kts 123°
2026-04-24 03:49 49.72290 -94.21015 36555 ft 433 kts 122°
2026-04-24 03:50 49.69918 -94.12410 36533 ft 432 kts 122°
2026-04-24 03:50 49.67542 -94.03825 36527 ft 437 kts 122°
2026-04-24 03:51 49.65148 -93.95213 36557 ft 440 kts 122°
2026-04-24 03:51 49.62707 -93.86465 36548 ft 443 kts 122°
2026-04-24 03:52 49.60266 -93.77735 36555 ft 445 kts 122°
2026-04-24 03:52 49.57809 -93.68999 36548 ft 445 kts 121°
2026-04-24 03:53 49.55324 -93.60184 36547 ft 446 kts 121°
2026-04-24 03:53 49.52856 -93.51460 36551 ft 442 kts 121°
2026-04-24 03:54 49.50397 -93.42808 36564 ft 443 kts 121°
2026-04-24 03:54 49.47924 -93.34131 36559 ft 443 kts 121°
2026-04-24 03:55 49.45450 -93.25483 36544 ft 439 kts 121°
2026-04-24 03:55 49.42994 -93.16924 36533 ft 440 kts 121°
2026-04-24 03:56 49.40518 -93.08340 36530 ft 441 kts 121°
2026-04-24 03:56 49.38032 -92.99747 36543 ft 440 kts 121°
2026-04-24 03:57 49.35550 -92.91200 36544 ft 441 kts 120°
2026-04-24 03:57 49.33044 -92.82595 36546 ft 441 kts 121°
2026-04-24 03:58 49.30542 -92.74032 36546 ft 443 kts 120°
2026-04-24 03:58 49.28006 -92.65388 36549 ft 442 kts 120°
2026-04-24 03:59 49.25488 -92.56838 36551 ft 443 kts 120°
2026-04-24 03:59 49.22945 -92.48232 36546 ft 444 kts 120°
2026-04-24 03:59 49.21664 -92.43915 36877 ft 445 kts 119°
2026-04-24 04:00 49.20370 -92.39552 36367 ft 449 kts 120°
2026-04-24 04:00 49.19095 -92.35248 36661 ft 436 kts 120°
2026-04-24 04:00 49.17826 -92.30999 36510 ft 440 kts 120°
2026-04-24 04:00 49.16604 -92.26899 36495 ft 428 kts 120°
2026-04-24 04:01 49.15360 -92.22732 36238 ft 431 kts 120°
2026-04-24 04:01 49.14095 -92.18510 35315 ft 435 kts 120°
2026-04-24 04:01 49.12849 -92.14357 34558 ft 430 kts 120°
2026-04-24 04:01 49.11601 -92.10203 33823 ft 426 kts 120°
2026-04-24 04:02 49.10366 -92.06094 33154 ft 426 kts 120°
2026-04-24 04:02 49.09129 -92.01992 32489 ft 430 kts 120°
2026-04-24 04:02 49.07870 -91.97817 31811 ft 436 kts 120°
2026-04-24 04:02 49.06592 -91.93604 31147 ft 441 kts 120°
2026-04-24 04:03 49.05293 -91.89312 30476 ft 446 kts 120°
2026-04-24 04:03 49.03991 -91.85022 29793 ft 447 kts 120°
2026-04-24 04:03 49.02687 -91.80733 29145 ft 451 kts 120°
2026-04-24 04:03 49.01352 -91.76347 28486 ft 453 kts 120°
2026-04-24 04:04 49.00025 -91.72002 27823 ft 456 kts 120°
2026-04-24 04:04 48.98699 -91.67660 27173 ft 458 kts 119°
2026-04-24 04:04 48.97345 -91.63236 26506 ft 463 kts 120°
2026-04-24 04:04 48.95990 -91.58823 25852 ft 463 kts 119°
2026-04-24 04:05 48.94629 -91.54388 25179 ft 458 kts 119°
2026-04-24 04:05 48.93281 -91.50002 24527 ft 452 kts 119°
2026-04-24 04:05 48.91964 -91.45735 23892 ft 446 kts 119°
2026-04-24 04:05 48.90657 -91.41507 23261 ft 441 kts 119°
2026-04-24 04:06 48.89374 -91.37353 22660 ft 435 kts 119°
2026-04-24 04:06 48.88087 -91.33206 22059 ft 431 kts 119°
2026-04-24 04:06 48.86820 -91.29125 21463 ft 426 kts 119°
2026-04-24 04:06 48.85698 -91.25515 20928 ft 423 kts 119°
2026-04-24 04:07 48.84433 -91.21447 20320 ft 420 kts 120°
2026-04-24 04:07 48.83192 -91.17475 19726 ft 416 kts 120°
2026-04-24 04:07 48.81958 -91.13526 19125 ft 413 kts 120°
2026-04-24 04:07 48.80721 -91.09569 18524 ft 410 kts 119°
2026-04-24 04:08 48.79511 -91.05714 17931 ft 408 kts 119°
2026-04-24 04:08 48.78286 -91.01807 17331 ft 406 kts 119°
2026-04-24 04:08 48.77084 -90.97981 16735 ft 404 kts 119°
2026-04-24 04:08 48.75892 -90.94192 16147 ft 401 kts 119°
2026-04-24 04:09 48.74683 -90.90365 15571 ft 399 kts 119°
2026-04-24 04:09 48.73503 -90.86623 15090 ft 393 kts 119°
2026-04-24 04:09 48.72334 -90.82919 14631 ft 388 kts 119°
2026-04-24 04:09 48.71167 -90.79238 14140 ft 384 kts 119°
2026-04-24 04:10 48.70029 -90.75652 13654 ft 381 kts 120°
2026-04-24 04:10 48.68875 -90.72028 13166 ft 378 kts 119°
2026-04-24 04:10 48.67751 -90.68490 12686 ft 374 kts 119°
2026-04-24 04:11 48.65505 -90.61443 11720 ft 368 kts 120°
2026-04-24 04:11 48.64398 -90.57970 11225 ft 366 kts 119°
2026-04-24 04:11 48.63304 -90.54555 10617 ft 352 kts 120°
2026-04-24 04:11 48.62276 -90.51341 10082 ft 332 kts 120°
2026-04-24 04:12 48.61303 -90.48296 9798 ft 307 kts 120°
2026-04-24 04:12 48.60399 -90.45490 9690 ft 296 kts 121°
2026-04-24 04:12 48.59484 -90.42657 9208 ft 301 kts 121°
2026-04-24 04:12 48.58571 -90.39820 8761 ft 303 kts 120°
2026-04-24 04:13 48.57655 -90.36968 8386 ft 299 kts 120°
2026-04-24 04:13 48.56755 -90.34169 8177 ft 294 kts 122°
2026-04-24 04:13 48.55867 -90.31425 7946 ft 291 kts 122°
2026-04-24 04:13 48.54982 -90.28696 7741 ft 287 kts 121°
2026-04-24 04:14 48.54103 -90.25971 7528 ft 283 kts 121°
2026-04-24 04:14 48.53251 -90.23351 7310 ft 279 kts 122°
2026-04-24 04:14 48.52394 -90.20707 7106 ft 277 kts 121°
2026-04-24 04:14 48.51546 -90.18107 6903 ft 276 kts 121°
2026-04-24 04:15 48.50708 -90.15507 6699 ft 275 kts 121°
2026-04-24 04:15 48.49867 -90.12922 6491 ft 272 kts 122°
2026-04-24 04:15 48.49035 -90.10377 6286 ft 270 kts 121°
2026-04-24 04:15 48.48208 -90.07844 6078 ft 268 kts 122°
2026-04-24 04:16 48.47377 -90.05310 5884 ft 267 kts 121°
2026-04-24 04:16 48.46567 -90.02818 5678 ft 264 kts 121°
2026-04-24 04:16 48.45761 -90.00345 5464 ft 262 kts 120°
2026-04-24 04:16 48.44962 -89.97887 5263 ft 261 kts 120°
2026-04-24 04:17 48.44155 -89.95435 5047 ft 260 kts 121°
2026-04-24 04:17 48.43362 -89.93027 4821 ft 255 kts 120°
2026-04-24 04:17 48.42588 -89.90662 4616 ft 250 kts 119°
2026-04-24 04:17 48.41820 -89.88333 4422 ft 245 kts 120°
2026-04-24 04:18 48.41070 -89.86058 4200 ft 241 kts 119°
2026-04-24 04:18 48.40334 -89.83791 3985 ft 237 kts 119°
2026-04-24 04:18 48.39617 -89.81616 3757 ft 234 kts 119°
2026-04-24 04:18 48.38896 -89.79451 3551 ft 225 kts 119°
2026-04-24 04:19 48.38216 -89.77395 3325 ft 217 kts 118°
2026-04-24 04:19 48.37560 -89.75382 3123 ft 206 kts 117°
2026-04-24 04:19 48.36933 -89.73494 2912 ft 198 kts 118°
2026-04-24 04:19 48.36332 -89.71676 2916 ft 194 kts 118°
2026-04-24 04:20 48.35725 -89.69846 2915 ft 198 kts 118°
2026-04-24 04:20 48.35105 -89.67973 2905 ft 197 kts 118°
2026-04-24 04:20 48.34495 -89.66131 2918 ft 195 kts 119°
2026-04-24 04:20 48.33897 -89.64331 2907 ft 193 kts 119°
2026-04-24 04:21 48.33300 -89.62528 2904 ft 194 kts 118°
2026-04-24 04:21 48.32687 -89.60679 2920 ft 198 kts 119°
2026-04-24 04:21 48.32072 -89.58834 2903 ft 199 kts 119°
2026-04-24 04:21 48.31614 -89.56912 2898 ft 202 kts 98°
2026-04-24 04:22 48.31885 -89.54833 2941 ft 209 kts 74°
2026-04-24 04:22 48.32404 -89.52806 2918 ft 209 kts 76°
2026-04-24 04:22 48.32892 -89.50769 2926 ft 202 kts 76°
2026-04-24 04:22 48.33350 -89.48876 2812 ft 182 kts 77°
2026-04-24 04:23 48.33753 -89.47194 2627 ft 158 kts 78°
2026-04-24 04:23 48.34099 -89.45735 2368 ft 142 kts 77°
2026-04-24 04:23 48.34413 -89.44384 2215 ft 132 kts 77°
2026-04-24 04:23 48.34716 -89.43098 2039 ft 129 kts 76°
2026-04-24 04:24 48.35013 -89.41849 1857 ft 127 kts 75°
2026-04-24 04:24 48.35309 -89.40602 1665 ft 129 kts 75°
2026-04-24 04:24 48.35612 -89.39329 1520 ft 125 kts 73°
2026-04-24 04:24 48.35927 -89.38097 1359 ft 126 kts 77°
2026-04-24 04:25 48.36223 -89.36832 1119 ft 129 kts 70°
2026-04-24 04:25 48.36509 -89.35554 983 ft 129 kts 73°
2026-04-24 04:25 48.36815 -89.34257 785 ft 130 kts 73°
2026-04-24 04:25 48.37109 -89.32987 660 ft 125 kts 71°
2026-04-24 04:26 48.37330 -89.32027 639 ft 56 kts 71°
2026-04-24 04:26 48.37429 -89.31609 637 ft 36 kts 70°
2026-04-24 04:26 48.37484 -89.31368 635 ft 18 kts 72°
2026-04-24 04:26 48.37506 -89.31256 635 ft 9 kts 86°
2026-04-24 04:27 48.37472 -89.31201 635 ft 7 kts 163°
2026-04-24 04:27 48.37454 -89.31197 635 ft 0 kts 172°
2026-04-24 04:28 48.37425 -89.31198 635 ft 6 kts 190°
2026-04-24 04:28 48.37384 -89.31230 635 ft 7 kts 214°
2026-04-24 04:29 48.37331 -89.31289 636 ft 12 kts 218°
2026-04-24 04:29 48.37261 -89.31372 637 ft 12 kts 218°
2026-04-24 04:29 48.37214 -89.31427 638 ft 0 kts 218°
2026-04-24 04:29 48.37214 -89.31428 638 ft 0 kts 218°
2026-04-24 04:30 48.37213 -89.31428 638 ft 0 kts 215°
2026-04-24 04:30 48.37201 -89.31423 638 ft 2 kts 155°
2026-04-24 04:30 48.37187 -89.31406 638 ft 2 kts 136°
2026-04-24 04:30 48.37171 -89.31378 638 ft 7 kts 128°
2026-04-24 04:31 48.37161 -89.31358 638 ft 0 kts 127°